Location: Armstrong
(40.9123°N, 82.0110°W)
Time: 22:50:17
(UTC+00:00)

USA 307 - Pass Details

Date: 29 October 2020
Orbit: 569 x 579 km, 54.0° (Epoch: 23 November)

Event Time Altitude Azimuth Distance (km) Brightness Sun altitude
Rises 23:26:40 0° 314° (NW) 2,788 7.0 -11.8°
Reaches altitude 10° 23:29:06 10° 324° (NW) 1,885 5.9 -12.3°
Maximum altitude 23:33:00 33° 29° (NNE) 968 3.8 -13.0°
Enters shadow 23:35:05 21° 78° (ENE) 1,294 4.1 -13.4°
